Tracking 28520 objects as of 1-Mar-2024
HD Live streaming from Space Station
objects crossing your sky now

OBJECT B

Track OBJECT B now!
10-day predictions


NORAD ID: 44487
Int'l Code: 2019-052B
Perigee: 485.3 km
Apogee: 505.0 km
Inclination: 97.4 °
Period: 94.4 minutes
Semi major axis: 6866 km
RCS: Unknown
Launch date: August 17, 2019
Source: People's Republic of China (PRC)
Launch site: Jiuquan Satellite Launch Center, China (JSC)
Your satellite tracking list
Your tracking list is empty




NASA's NSSDC Master Catalog

Two Line Element Set (TLE):
1 44487U 19052B   24060.88505801  .00015756  00000-0  61456-3 0  9990
2 44487  97.4267 133.1483 0014374 316.7209  43.2899 15.25924429250380
Source of the keplerian elements: AFSPC